{"data":{"norad_id":58701,"intl_designator":"2024-004B","name":"TIANMU-1 16","alt_names":[],"object_type":"PAYLOAD","status":"ACTIVE","operator":null,"country":"PRC","launch_date":"2024-01-05","launch_site_code":"JSC","launch_vehicle":null,"mission":null,"orbit_class":"UNKNOWN","rcs_meters":null,"size_class":null,"mass_kg":null,"dimensions":null,"purposes":["earth_obs"],"wikipedia_slug":null,"has_3d_model":false,"image_url":null,"decayed_at":null,"tle_current":{"epoch":"2026-05-25T05:05:35.565216Z","epoch_age_seconds":52838,"freshness":"FRESH","line1":"1 58701U 24004B   26145.21221719  .00005032  00000+0  19568-3 0  9995","line2":"2 58701  97.4623 330.6656 0007545  78.3206 281.8879 15.26471569132274","mean_motion":15.26471569,"eccentricity":0.0007545,"inclination_deg":97.4623,"raan_deg":330.6656,"arg_perigee_deg":78.3206,"mean_anomaly_deg":281.8879,"bstar":0.00019568,"rev_number":13227,"period_min":94.335199504787,"perigee_km":481.19087481157,"apogee_km":491.54941609406,"semimajor_km":6864.5071454528,"source":"CELESTRAK","updated_at":"2026-05-25T13:38:12.260174Z"}}}